{"data":{"norad_id":29045,"intl_designator":"2006-010A","name":"JCSAT-5A","alt_names":[],"object_type":"PAYLOAD","status":"ACTIVE","operator":null,"country":"JPN","launch_date":"2006-04-12","launch_site_code":"SEAL","launch_vehicle":null,"mission":null,"orbit_class":"UNKNOWN","rcs_meters":19.9526,"size_class":null,"mass_kg":null,"dimensions":null,"purposes":["comms"],"wikipedia_slug":null,"has_3d_model":false,"image_url":null,"decayed_at":null,"tle_current":{"epoch":"2026-05-25T04:22:13.656000Z","epoch_age_seconds":55981,"freshness":"FRESH","line1":"1 29045U 06010A   26145.18210250 -.00000329  00000+0  00000+0 0  9997","line2":"2 29045   1.0521  84.4600 0001900 343.9300  11.9959  1.00272583 73535","mean_motion":1.00272583,"eccentricity":0.00019,"inclination_deg":1.0521,"raan_deg":84.46,"arg_perigee_deg":343.93,"mean_anomaly_deg":11.9959,"bstar":0,"rev_number":7353,"period_min":1436.0854751293,"perigee_km":35778.359997738,"apogee_km":35794.382510874,"semimajor_km":42164.508254306,"source":"CELESTRAK","updated_at":"2026-05-25T13:38:13.851672Z"}}}